{"data":{"norad_id":64475,"intl_designator":"2025-133D","name":"STARLINK-34523","alt_names":[],"object_type":"PAYLOAD","status":"ACTIVE","operator":null,"country":"US","launch_date":"2025-06-23","launch_site_code":"AFETR","launch_vehicle":null,"mission":null,"orbit_class":"UNKNOWN","rcs_meters":null,"size_class":null,"mass_kg":null,"dimensions":null,"purposes":["comms"],"wikipedia_slug":null,"has_3d_model":false,"image_url":null,"decayed_at":null,"tle_current":{"epoch":"2026-09-20T02:03:01.194336Z","epoch_age_seconds":167153,"freshness":"FRESH","line1":"1 64475U 25133D   26263.08543049  .00019760  00000+0  59422-3 0  9999","line2":"2 64475  53.1577 288.0059 0001105  80.7915 279.3212 15.34410474 71013","mean_motion":15.34410474,"eccentricity":0.0001105,"inclination_deg":53.1577,"raan_deg":288.0059,"arg_perigee_deg":80.7915,"mean_anomaly_deg":279.3212,"bstar":0.00059422,"rev_number":7101,"period_min":93.847117469559,"perigee_km":461.9162000423,"apogee_km":463.42801885549,"semimajor_km":6840.8091094489,"source":"CELESTRAK","updated_at":"2026-09-21T09:00:35.358663Z"}}}